This is the latest recevied weather packets stored in our database for station/object KB0RPJ. If no packets are shown the sender has not sent any weather packets the latest 10 day(s).
| Time | Temp. | Humidity | Pressure | Rain* | Wind** | Luminosity | Snow |
|---|---|---|---|---|---|---|---|
| 1777678504 | 15° C | 33% | 1015.7 hPa | 0 mm | - | 76 W/m² | - |
| 1777678205 | 15.56° C | 33% | 1015.7 hPa | 0 mm | - | 70 W/m² | - |
| 1777677906 | 15.56° C | 32% | 1015.7 hPa | 0 mm | - | 90 W/m² | - |
| 1777677605 | 15.56° C | 36% | 1015.6 hPa | 0 mm | - | 235 W/m² | - |
| 1777677318 | 15.56° C | 34% | 1015.6 hPa | 0 mm | - | 310 W/m² | - |
| 1777677005 | 15.56° C | 32% | 1015.6 hPa | 0 mm | - | 91 W/m² | - |
| 1777676705 | 16.11° C | 33% | 1015.5 hPa | 0 mm | - | 95 W/m² | - |
| 1777676405 | 16.67° C | 32% | 1015.6 hPa | 0 mm | - | 377 W/m² | - |
| 1777676105 | 16.67° C | 32% | 1015.6 hPa | 0 mm | - | 374 W/m² | - |
| 1777675809 | 17.22° C | 30% | 1015.7 hPa | 0 mm | - | 415 W/m² | - |
| 1777675505 | 17.22° C | 32% | 1015.6 hPa | 0 mm | - | 444 W/m² | - |
| 1777675205 | 17.22° C | 32% | 1015.6 hPa | 0 mm | - | 482 W/m² | - |
| 1777674904 | 17.22° C | 30% | 1015.5 hPa | 0 mm | - | 411 W/m² | - |
| 1777674605 | 17.22° C | 30% | 1015.6 hPa | 0 mm | - | 523 W/m² | - |
| 1777674306 | 17.22° C | 28% | 1015.6 hPa | 0 mm | - | 505 W/m² | - |
| 1777674006 | 17.22° C | 31% | 1015.6 hPa | 0 mm | - | 516 W/m² | - |
| 1777673704 | 17.22° C | 28% | 1015.6 hPa | 0 mm | - | 538 W/m² | - |
| 1777673405 | 17.78° C | 27% | 1015.6 hPa | 0 mm | - | 195 W/m² | - |
| 1777673104 | 17.78° C | 30% | 1015.6 hPa | 0 mm | - | 581 W/m² | - |
| 1777672805 | 17.22° C | 32% | 1015.7 hPa | 0 mm | - | 631 W/m² | - |
| 1777672505 | 17.22° C | 30% | 1015.6 hPa | 0 mm | - | 663 W/m² | - |
| 1777672204 | 16.67° C | 30% | 1015.7 hPa | 0 mm | - | 444 W/m² | - |
| 1777671904 | 16.67° C | 28% | 1015.8 hPa | 0 mm | - | 664 W/m² | - |
| 1777671606 | 17.22° C | 31% | 1015.7 hPa | 0 mm | - | 192 W/m² | - |
| 1777671305 | 17.22° C | 29% | 1015.6 hPa | 0 mm | - | 185 W/m² | - |
* Rain latest hour (hover to see other rain measurements)
** Current wind speed in m/s (hover to see current wind gust speed)